Regional Weather Roundup
Issued by NWS

Home | Current Version | Previous Version | Graphics & Text | Print | Product List | Glossary Off
Versions: 1 2 3 4 5 6 7 8 9 10 11 12 13 14 15 16 17 18 19 20 21 22 23 24 25 26 27 28 29 30 31 32 33 34 35 36 37 38 39 40 41 42 43 44 45 46 47 48 49 50

000
ASUS43 KMKX 211321
RWRWI

WISCONSIN REGIONAL WEATHER ROUNDUP
NATIONAL WEATHER SERVICE MILWAUKEE/SULLIVAN WI
800 AM CDT SUN SEP 21 2014

NOTE: "FAIR" INDICATES FEW OR NO CLOUDS BELOW 12,000 FEET WITH NO
SIGNIFICANT WEATHER AND/OR OBSTRUCTIONS TO VISIBILITY.

WIZ001-002-006>008-014>016-023>028-211400-
NORTHWEST WISCONSIN

CITY           SKY/WX    TMP DP  RH WIND       PRES   REMARKS
SUPERIOR ARPT  CLOUDY    54  52  94 NW6       30.01R
ASHLAND        CLOUDY    50  47  89 NW7       29.99R
HAYWARD        PTSUNNY   50  47  89 N6        29.98R
SIREN          RAIN      52  51  96 NW7       30.02R
RICE LAKE      PTSUNNY   52  48  88 N9G17     30.00R
LADYSMITH      CLOUDY    52  49  89 N15       29.96R
EAU CLAIRE     CLOUDY    55  50  83 N13       29.93R
MENOMONIE      CLOUDY    55  51  85 NW14G22   29.96R
NEW RICHMOND   CLOUDY    52  50  95 NW12G20   30.01R
OSCEOLA        CLOUDY    52  52 100 NW10G16   30.05R
$$

WIZ003>005-009-010-017-018-211400-
NORTH CENTRAL WISCONSIN

CITY           SKY/WX    TMP DP  RH WIND       PRES   REMARKS
WOODRUFF       PTSUNNY   49  47  90 N12G20    29.90R
RHINELANDER    CLOUDY    48  45  89 N9G17     29.89R
EAGLE RIVER    CLOUDY    46  45  94 N15       29.88R
LAND O LAKES   CLOUDY    46  43  89 N10G21    29.90R
PHILLIPS       CLOUDY    50  47  89 N12G17    29.93R
TOMAHAWK       CLOUDY    49  47  91 N10G20    29.89R
MEDFORD        HVY RAIN  52  51  96 N15       29.88R
MERRILL        CLOUDY    53  52  95 N13G18    29.86R
$$

WIZ029-030-035-036-043>047-211400-
CENTRAL WISCONSIN

CITY           SKY/WX    TMP DP  RH WIND       PRES   REMARKS
WAUSAU         CLOUDY    54  52  93 N8        29.83R
MOSINEE        DRIZZLE   54  54 100 NW10      29.84R
MARSHFIELD     LGT RAIN  55  53  93 NW15      29.87R
STEVENS POINT  DRIZZLE   52  51  95 NW9       29.84R
WAUPACA        LGT RAIN  56  55  94 NW9       29.80R
WAUTOMA        CLOUDY    55  53  93 NW10      29.82R
WISC RAPIDS    CLOUDY    55  52  89 NW10      29.87R
CAMP DOUGLAS   CLOUDY    54  54 100 NW16G23   29.87R
$$

WIZ011>013-019>022-031-037>040-048>050-211400-
NORTHEAST WISCONSIN

CITY           SKY/WX    TMP DP  RH WIND       PRES   REMARKS
ANTIGO         CLOUDY    52  50  93 N13       29.83R
STURGEON BAY   CLOUDY    54  48  82 N21G29    29.75R
GREEN BAY      CLOUDY    56  54  93 NW10      29.77R
MANITOWOC      LGT RAIN  56  54  93 N12       29.73R
APPLETON       CLOUDY    54  54 100 NW12      29.77R
CLINTONVILLE   RAIN      55  52  88 N8        29.81R
OSHKOSH        CLOUDY    56  53  90 NW13      29.77R
$$

WIZ032>034-041-042-053>061-211400-
SOUTHWEST WISCONSIN

CITY           SKY/WX    TMP DP  RH WIND       PRES   REMARKS
LA CROSSE      CLOUDY    57  49  74 NW16G23   29.92R
SPARTA         CLOUDY    55  48  77 NW12G21   29.91R
VIROQUA        CLOUDY    53  48  84 NW17G26   29.91R
BOSCOBEL       CLOUDY    57  48  72 W9        29.91R
PRAIRIE DU CHI CLOUDY    56  47  71 NW13G24   29.92R
PLATTEVILLE    PTSUNNY   55  51  87 NW13      29.90R
$$

WIZ056-057-062-063-064-067-068-211400-
SOUTH CENTRAL WISCONSIN

CITY           SKY/WX    TMP DP  RH WIND       PRES   REMARKS
BARABOO/DELLS  CLOUDY    53  49  86 NW13      29.84R
LONE ROCK      CLOUDY    60  48  64 W14G23    29.87R
WATERTOWN      CLOUDY    55  52  90 W14G22    29.79R
MADISON        CLOUDY    56  48  74 NW12G25   29.83R
MIDDLETON      CLOUDY    56  49  77 NW12G20   29.84R
MONROE         CLOUDY    54  50  87 W13G23    29.85R
JANESVILLE     CLOUDY    57  50  77 W15G21    29.81R
$$

WIZ051-052-058>065-066-070>072-211400-
SOUTHEAST WISCONSIN

CITY           SKY/WX    TMP DP  RH WIND       PRES   REMARKS
MILWAUKEE      PTSUNNY   58  50  75 W13G25    29.75R
WAUKESHA       DRIZZLE   54  50  87 W18G25    29.78R FOG
MILWAUKEE/TIMM CLOUDY    55  48  76 W14G24    29.76R
RACINE         CLOUDY    57  51  80 W12       29.78R
BURLINGTON     CLOUDY    54  50  86 W12G20    29.79R
KENOSHA        PTSUNNY   57  51  80 W15G26    29.78R
FOND DU LAC    CLOUDY    55  51  86 NW14G21   29.77R
SHEBOYGAN      LGT RAIN  56  52  86 NW9       29.73R
WEST BEND      CLOUDY    54  50  87 NW12G17   29.76R
JUNEAU         CLOUDY    54  51  89 W12G18    29.80R
$$

LSZ147-162-211400-
LAKE SUPERIOR

STATION/POSITION TIME  TEMP    WIND        PRES    WAVE
                       AIR SEA DIR/SP/G            HT/PER
                 (UTC) (F)     (DEG/KT/KT) (MB)    (FT/S)
W MID LAKE BUOY  1250   47 47   20/ 14/ 16 1014.7R   3/ 4
DEVILS ISLAND    1300   50     340/ 16/ 19 1015.8R
PORT WING        1200   53     350/  8/ 10 1014.9R
SAXON HARBOR     1240   53      40/ 15/ 18 1014.9R
$$

LMZ867-665-643>646-211400-
LAKE MICHIGAN

STATION/POSITION TIME  TEMP    WIND        PRES    WAVE
                       AIR SEA DIR/SP/G            HT/PER
                 (UTC) (F)     (DEG/KT/KT) (MB)    (FT/S)
N MID LAKE BUOY  1250   55 58  350/ 23/ 27 1004.3R   3/ 5
NORTHPORT PIER   1304   55     340/ 24/ 29 1006.8R
SISTER BAY       1227          360/ 26/ 32   N/A
KEWAUNEE LAKESHO 1300   55     330/  9/ 14 1005.8R
SHEBOYGAN LAKESH 1300   56 52  300/ 13/ 16 1006.8R
PORT WASHINGTON  1200   57     280/  8/ 16 1006.8
ATWATER BUOY     1300   56     270/ 16/ 21 1008.6R
MILWAUKEE LAKESH 1300   58     290/ 14/ 21   N/A
S MID LAKE BUOY  1250   60 63  270/ 25/ 29 1006.5R   5/ 5
KENOSHA   LAKESH 1300   58     280/ 16/ 22 1008.1R
$$

TC  - TEMPERATURE IN CELSIUS
VSB - VISIBILITY IN STATUTE MILES
WCI - WIND CHILL INDEX
HX  - HEAT INDEX



USA.gov is the U.S. government's official web portal to all federal, state and local government web resources and services.